Regional Weather Roundup
Issued by NWS Wakefield, VA

Home | Current Version | Previous Version | Graphics & Text | Print | Product List | Glossary On
Versions: 1 2 3 4 5 6 7 8 9 10 11 12 13 14 15 16 17 18 19 20 21 22 23 24 25 26 27 28 29 30 31 32 33 34 35 36 37 38 39 40 41 42 43 44 45 46 47 48 49 50
320
ASUS41 KAKQ 290416
RWRAKQ

REGIONAL WEATHER ROUNDUP
NATIONAL WEATHER SERVICE WAKEFIELD VA
1200 AM EDT THU JUN 29 2017

Note: "fair" indicates few or no clouds below 12,000 feet with no
significant weather and/or obstructions to visibility. * = Denotes
station may not report precipitation (e.g., rain,snow,etc.),
thunder or fog.

VAZ042-051-052>054-056-290500-
NORTHERN VIRGINIA

CITY           SKY/WX    TMP DP  RH WIND       PRES   REMARKS
WASH NATIONAL  PTCLDY    71  59  65 S12       30.16S
DULLES         MOCLDY    68  52  56 S8        30.14F
FORT BELVOIR   PTCLDY    67  56  69 S5        30.15F
QUANTICO       CLEAR     73  62  68 S15       30.17S
FREDERICKSBRG* PTCLDY    64  57  77 S7        30.16F
STAFFORD*      CLOUDY    58  56  95 CALM      30.20F
WARRENTON      CLEAR     67  51  56 SE3       30.15F
CULPEPER*      CLOUDY    60  56  85 CALM      30.17S
MANASSAS*      CLOUDY    62  55  77 S3        30.15F
LEESBURG*      PTCLDY    68  57  68 S6        30.16S
WINCHESTER     CLEAR     63  52  67 CALM      30.13S
FRONT ROYAL*   CLEAR     66  54  63 SW5       30.13S
LURAY*         CLEAR     66  54  63 SW5       30.16S
$$

VAZ048-049-060>072-079>083-290500-
CENTRAL AND SOUTH CENTRAL VIRGINIA

CITY           SKY/WX    TMP DP  RH WIND       PRES   REMARKS
RICHMOND       PTCLDY    66  58  75 SE9       30.19S
CHESTERFIELD*  NOT AVBL
PETERSBURG*    PTCLDY    64  56  74 CALM      30.21S
HANOVER        CLEAR     66  55  67 VRB5      30.19F
TAPPAHANNOCK*  CLEAR     64  49  58 S5        30.19F
QUINTON*       FAIR      66  57  71 SE5       30.19F
CHARLOTTSVILLE CLOUDY    67  56  67 S3        30.16F
GORDONSVILLE*  CLOUDY    61  57  86 CALM      30.16F
ORANGE*        CLOUDY    59  54  82 CALM      30.17F
LOUISA*        CLOUDY    70  57  64 S3        30.16F
BUMPASS*       FAIR      60  57  88 SW3       30.17F
FARMVILLE*     CLEAR     64  56  75 CALM      30.17F
CREWE*         FAIR      58  54  86 CALM      30.19S
FORT PICKETT*  FAIR      64  53  69 CALM      30.20S
CHASE CITY*    FAIR      62  60  93 CALM      30.20S
CLARKSVILLE*   FAIR      61  61 100 CALM      30.19F
SOUTH HILL*    CLEAR     59  58  97 CALM      30.26R
LAWRENCEVILLE* FAIR      62  58  86 CALM      30.20S
EMPORIA*       PTCLDY    61  57  88 CALM      30.23R
$$

VAZ088>098-290500-
SOUTHEAST VIRGINIA

CITY           SKY/WX    TMP DP  RH WIND       PRES   REMARKS
NORFOLK        CLEAR     68  58  70 S7        30.21S
VIRGINIA BEACH PTCLDY    64  55  72 SW5       30.21S
NORFOLK NAVAL  PTCLDY    69  57  65 S7        30.22F
WEST POINT*    PTCLDY    67  54  61 S5        30.21S
SALUDA*        FAIR      66  58  75 S3        30.20S
NEWPORT NEWS   CLEAR     68  54  60 S6        30.21S
LANGLEY AFB    CLEAR     68  58  70 S3        30.20F
FORT EUSTIS    CLEAR     69  58  66 S8        30.19S
WILLIAMSBURG*  CLEAR     72  57  60 CALM      30.22S
HR EXEC AP*    FAIR      57  52  82 CALM      30.20F
FRANKLIN*      PTCLDY    63  57  82 CALM      30.22S
US460-WAKEFLD  CLEAR     66  57  72 CALM      30.21S
$$

VAZ020-022-025-037-045-290500-
WEST CENTRAL AND SOUTHWEST VIRGINIA

CITY           SKY/WX    TMP DP  RH WIND       PRES   REMARKS
STAUNTON*      CLOUDY    59  52  77 SW3       30.20S
WAYNESBORO*    CLOUDY    64  54  69 S8        30.19F
HOT SPRINGS VA CLOUDY    59  46  63 S12G21    30.28S
LYNCHBURG      CLEAR     65  56  72 S5        30.19F
DANVILLE       PTCLDY    63  58  83 S3        30.19F
SOUTH BOSTON*  FAIR      60  59  96 CALM      30.19F
MARTINSVILLE   PTCLDY    59  58  95 CALM      30.22S
ROANOKE        PTCLDY    69  56  62 SE3       30.21F
BLACKSBURG     PTCLDY    63  56  79 CALM      30.25S
DUBLIN*        CLEAR     65  52  63 W5        30.24R
MARION*        CLEAR     68  53  58 S3        30.24S
HILLSVILLE*    CLEAR     63  52  66 CALM      30.23F
RICHLANDS*     FAIR      67  22  18 S6        30.21S
WISE*          CLEAR     68  54  60 CALM      30.21S
ABINGDON*      CLEAR     67  58  71 CALM      30.19S
$$

MDZ021>025-VAZ099-100-290500-
SOUTHERN MARYLAND AND THE DELMARVA PENINSULA

CITY           SKY/WX    TMP DP  RH WIND       PRES   REMARKS
PATUXENT RIVER CLEAR     69  57  65 S8        30.17S
BAY BRIDGE APT CLEAR     72  57  60 S9G17     30.16S
LEONARDTOWN    CLEAR     66  55  68 S3        30.20R
DOVER          CLEAR     64  63  94 S7        30.16S
GEORGETOWN     PTCLDY    65  56  72 S7        30.18F
EASTON         CLEAR     66  56  69 SW5       30.20S
CAMBRIDGE      CLEAR     64  57  77 S3        30.17F
SALISBURY      PTCLDY    62  57  83 S6        30.19S
OCEAN CITY     CLEAR     66  59  78 SW5       30.20S
WALLOPS ISLAND CLEAR     65  61  87 S9        30.20S
ACCOMACK*      CLEAR     64  57  79 S5        30.20F
$$

NCZ012>017-030>032-290500-
NORTH CENTRAL AND EASTERN NORTH CAROLINA

CITY           SKY/WX    TMP DP  RH WIND       PRES   REMARKS
ROANOKE RAPIDS FAIR      61  59  94 CALM      30.21R
RALEIGH        PTCLDY    64  57  78 CALM      30.21R
ELIZABETH CITY CLEAR     67  63  87 CALM      30.22R
AHOSKIE*         N/A     63  62  94 CALM      30.22S
EDENTON*       CLEAR     71  64  80 CALM      30.22S
CURRITUCK*     CLEAR     66  61  85 CALM      30.23S
KILL DEVIL HLS CLEAR     70  61  73 SE3       30.20S
MANTEO         CLEAR     68  63  83 CALM      30.22R
CAPE HATTERAS  NOT AVBL
TARBORO*       NOT AVBL
GOLDSBORO      CLEAR     70  62  76 CALM      30.19S
WASHINGTON     CLEAR    N/A N/A N/A CALM      30.21S
GREENVILLE     CLEAR     70  61  73 CALM      30.22R
NEW BERN       CLEAR     66  61  84 CALM      30.22R
WILMINGTON     PTCLDY    68  61  78 CALM      30.20S
$$

VAZ048-290500-
ELSEWHERE

CITY           SKY/WX    TMP DP  RH WIND       PRES   REMARKS
HARRISBURG PA  PTCLDY    69  53  56 S6        30.12S
BALTIMORE      PTCLDY    68  56  65 SW3       30.15S
ANNAPOLIS      CLEAR     67  57  70 S6        30.15F
ANDREWS AFB    CLEAR     66  55  69 S8        30.15F
PHILADELPHIA   CLOUDY    70  58  65 S7        30.15S
HENDERSON NC   CLEAR     63  54  73 CALM      30.21S
GREENSBORO     PTCLDY    69  58  67 S8        30.19F
ROCKY MOUNT    CLEAR     64  61  90 SE3       30.21R
$$

VAZ100-290500-
MARINE

STATION/POSITION TIME  TEMP    WIND        PRES    WAVE   SWELL
                       AIR SEA DIR/SP/G            HT/PER HT/PER
                 (UTC) (F)     (DEG/KT/KT) (MB)    (FT/S) (FT/S)
BRANDYWINE LGT   0348          220/ 17/ 19 1021.9F
CAPE MAY NJ      0348   66 68  170/  5/  7 1021.7F
LEWES DE         0348   67 70  210/  5/  8 1021.8F
15NM E FENWICK I 0350   70 69  190/ 12/ 14 1022.6F   2/ 3   2/ 9
OCEAN-CITY-INLET 0348   68 68  220/  8/ 10 1022.7S
WACHAPREAGUE VA  0348   72 77  170/ 10/ 12 1022.4F
THOMAS POINT MD  0400   73 76  200/ 20/ 21   N/A
GOOSES REEF MD   0400   73 77  200/ 16/ 19 1022.3    2/ 3
COVE POINT MD    0348   71     210/ 12/ 15 1022.3F
SOLOMONS ISLAND  0348   71 78  200/ 13/ 15   N/A
BISHOPS HEAD MD  0348   74 79  190/ 14/ 17 1022.0S
PINEY POINT MD   0348          200/ 14/ 16   N/A
POTOMAC MD       0400   73 78  210/ 16/ 19 1021.3    2/ 3
CAMBRIDGE MD     0348   69 81              1022.2F
LEWISETTA VA     0348   70 78  200/  9/ 10 1021.9F
RAPPAHANNOCK LGT 0348          160/ 15/ 17 1023.0F
STINGRAY PT      0350   75     200/ 14/ 17 1022.0F
YORK RVR RNG VA  0348   73     190/ 13/ 15 1022.8F
YORKTOWN VA      0348   70 79  180/  7/ 10 1022.3F
JAMESTOWN VA     0400   71 81  170/ 14/ 16   N/A     1/ 3
DOMINION TERM VA 0348   71     170/ 10/ 12 1023.0F
KIPTOPEKE VA     0348      75  150/  7/  8   N/A
CHES BAY BRIDGE  0348   71 75  190/ 11/ 13 1022.7F
CAPE HENRY VA    0348   68     170/  8/  9   N/A
WILLOUBY STN VA  0348   71     180/  8/  9 1022.8F
S CRANEY ISL VA  0348   71     180/  9/ 11 1022.8S
CAPE HENRY BUOY  0400      72                N/A     2/ 8
1ST LANDING BUOY 0400   72 76              1023.0    1/ 3
CAPE CHARLES BUO 0321      70                N/A     2/ 8
64NM E OF VA BCH 0350   71 73  150/  8/  8 1023.6S   2/ 9   2/ 9
DUCK PIER NC     0348   72 74  120/  9/ 10 1022.7R
44100 DUCK FRF   0305      73                N/A     2/ 5
OREGON INLET NC  0348          100/  4/  7 1022.9S
HATTERAS NC      0348   72 79   80/  4/  5 1022.5F
DIAMOND SHLS NC  0350   79 83  110/  6/  6 1022.3S   2/ 7   2/ 7
CAPE LOOKOUT NC  0300   78     100/  8/  9 1022.2R
$$




USA.gov is the U.S. government's official web portal to all federal, state and local government web resources and services.